Location: Unspecified
(48.5539°N, 71.6350°W)
Time: 05:36:49
(UTC-05:00)

ISS - Pass Details

Date: 24 January 2019
Orbit: 403 x 411 km, 51.6° (Epoch: 18 February)

Event Time Altitude Azimuth Distance (km) Brightness Sun altitude
Rises 17:54:33 0° 216° (SW) 2,323 0.9 -13.5°
Reaches altitude 10° 17:56:47 10° 204° (SSW) 1,468 -0.5 -13.9°
Maximum altitude 17:59:39 28° 144° (SE) 805 -2.6 -14.4°
Enters shadow 18:00:32 24° 115° (ESE) 892 -2.6 -14.5°
Drops below altitude 10° 18:02:33 10° 83° (E) 1,480 - -14.8°
Sets 18:04:49 0° 71° (ENE) 2,347 - -15.2°
